| time (UTC) | temp F | wind direction | speed MPH | gust MPH | rain 1hr in | rain 24hr in | rain mn in | humidity % | barometer mb |
| 20260831112002 | 73 | 111 | 0.0 | 0.0 | 0.00 | 0.21 | 0.00 | 95 | 1014.4 |
| 20260831111000 | 73 | 111 | 0.0 | 0.0 | 0.00 | 0.21 | 0.00 | 95 | 1014.2 |
| 20260831110005 | 73 | 111 | 0.0 | 0.0 | 0.00 | 0.21 | 0.00 | 95 | 1014.2 |
| 20260831105000 | 73 | 111 | 0.0 | 0.0 | 0.00 | 0.21 | 0.00 | 95 | 1014.0 |
| 20260831104000 | 73 | 111 | 0.0 | 0.0 | 0.00 | 0.21 | 0.00 | 95 | 1013.8 |
| 20260831103000 | 73 | 111 | 0.0 | 0.0 | 0.00 | 0.21 | 0.00 | 95 | 1013.7 |
| 20260831102000 | 73 | 111 | 0.0 | 0.0 | 0.00 | 0.21 | 0.00 | 95 | 1013.8 |
| 20260831101000 | 73 | 111 | 0.0 | 0.0 | 0.00 | 0.21 | 0.00 | 95 | 1013.8 |
| 20260831095002 | 73 | 111 | 0.0 | 0.0 | 0.00 | 0.21 | 0.00 | 95 | 1013.9 |
| 20260831094000 | 73 | 111 | 0.0 | 0.0 | 0.00 | 0.21 | 0.00 | 95 | 1013.9 |
| 20260831093002 | 74 | 111 | 0.0 | 0.0 | 0.00 | 0.21 | 0.00 | 95 | 1013.8 |
| 20260831091002 | 74 | 111 | 0.0 | 0.0 | 0.00 | 0.21 | 0.00 | 95 | 1013.9 |
| 20260831090002 | 74 | 111 | 0.0 | 0.0 | 0.00 | 0.21 | 0.00 | 95 | 1013.9 |
| 20260831084959 | 73 | 111 | 0.0 | 0.0 | 0.00 | 0.21 | 0.00 | 95 | 1013.9 |
| 20260831083959 | 73 | 111 | 0.0 | 0.0 | 0.00 | 0.21 | 0.00 | 95 | 1014.0 |
| 20260831082959 | 73 | 111 | 0.0 | 0.0 | 0.00 | 0.21 | 0.00 | 94 | 1013.9 |
| 20260831082001 | 73 | 111 | 0.0 | 0.0 | 0.00 | 0.21 | 0.00 | 94 | 1014.0 |
| 20260831080959 | 74 | 111 | 0.0 | 0.0 | 0.00 | 0.21 | 0.00 | 94 | 1014.1 |
| 20260831080003 | 74 | 111 | 0.0 | 0.0 | 0.00 | 0.21 | 0.00 | 94 | 1014.1 |
| 20260831075001 | 74 | 111 | 0.0 | 0.0 | 0.00 | 0.21 | 0.00 | 94 | 1014.0 |
| 20260831073001 | 74 | 111 | 0.0 | 2.0 | 0.00 | 0.21 | 0.00 | 94 | 1014.0 |
| 20260831071959 | 74 | 111 | 0.0 | 0.0 | 0.00 | 0.21 | 0.00 | 94 | 1014.1 |
| 20260831071001 | 74 | 111 | 0.0 | 0.0 | 0.00 | 0.21 | 0.00 | 94 | 1014.2 |
| 20260831070001 | 74 | 111 | 0.0 | 0.0 | 0.00 | 0.21 | 0.00 | 94 | 1014.2 |
| 20260831064959 | 74 | 111 | 0.0 | 0.0 | 0.00 | 0.21 | 0.00 | 94 | 1014.1 |
| 20260831063959 | 74 | 111 | 0.0 | 0.0 | 0.00 | 0.21 | 0.00 | 94 | 1014.2 |
| 20260831063000 | 74 | 111 | 0.0 | 0.0 | 0.00 | 0.21 | 0.00 | 94 | 1014.3 |
| 20260831061000 | 74 | 112 | 1.0 | 3.0 | 0.00 | 0.21 | 0.00 | 94 | 1014.5 |
| 20260831060003 | 74 | 112 | 1.0 | 4.0 | 0.00 | 0.21 | 0.00 | 94 | 1014.5 |
| 20260831055000 | 74 | 113 | 0.0 | 0.0 | 0.00 | 0.22 | 0.00 | 94 | 1014.7 |
| 20260831054001 | 75 | 113 | 0.0 | 1.0 | 0.00 | 0.22 | 0.00 | 95 | 1014.6 |
| 20260831053000 | 75 | 113 | 2.0 | 3.0 | 0.00 | 0.22 | 0.00 | 95 | 1014.6 |
| 20260831051000 | 75 | 89 | 2.0 | 6.0 | 0.00 | 0.22 | 0.00 | 95 | 1014.8 |
| 20260831050004 | 75 | 87 | 1.0 | 6.0 | 0.00 | 0.22 | 0.00 | 95 | 1014.8 |
| 20260831045002 | 75 | 89 | 2.0 | 4.0 | 0.00 | 0.22 | 0.00 | 95 | 1014.9 |
| 20260831044001 | 75 | 98 | 2.0 | 4.0 | 0.00 | 0.22 | 0.00 | 95 | 1015.0 |
| 20260831043002 | 75 | 98 | 1.0 | 4.0 | 0.00 | 0.22 | 0.00 | 95 | 1015.2 |
| 20260831042001 | 75 | 90 | 0.0 | 0.0 | 0.00 | 0.22 | 0.00 | 95 | 1015.3 |
| 20260831041002 | 75 | 90 | 0.0 | 3.0 | 0.00 | 0.22 | 0.00 | 94 | 1015.4 |
| 20260831040005 | 75 | 81 | 0.0 | 0.0 | 0.00 | 0.22 | 0.00 | 94 | 1015.5 |
| 20260831035003 | 75 | 78 | 0.0 | 0.0 | 0.00 | 0.22 | 0.22 | 94 | 1015.4 |
| 20260831034001 | 75 | 103 | 0.0 | 0.0 | 0.00 | 0.22 | 0.22 | 94 | 1015.4 |
| 20260831033003 | 75 | 104 | 0.0 | 0.0 | 0.00 | 0.22 | 0.22 | 94 | 1015.4 |
| 20260831032001 | 75 | 104 | 0.0 | 0.0 | 0.00 | 0.22 | 0.22 | 94 | 1015.4 |
| 20260831031003 | 75 | 104 | 0.0 | 0.0 | 0.00 | 0.22 | 0.22 | 94 | 1015.2 |
| 20260831030003 | 75 | 104 | 0.0 | 0.0 | 0.00 | 0.22 | 0.22 | 94 | 1015.2 |
| 20260831025001 | 75 | 104 | 0.0 | 0.0 | 0.00 | 0.22 | 0.22 | 94 | 1015.1 |
| 20260831024001 | 75 | 104 | 0.0 | 0.0 | 0.00 | 0.22 | 0.22 | 94 | 1015.2 |
| 20260831022001 | 75 | 104 | 0.0 | 0.0 | 0.00 | 0.22 | 0.22 | 94 | 1015.2 |
| 20260831021001 | 76 | 104 | 0.0 | 0.0 | 0.00 | 0.22 | 0.22 | 93 | 1015.2 |
| 20260831015001 | 76 | 104 | 0.0 | 2.0 | 0.00 | 0.22 | 0.22 | 93 | 1015.2 |
| 20260831014003 | 76 | 104 | 1.0 | 4.0 | 0.00 | 0.22 | 0.22 | 93 | 1015.3 |
| 20260831013001 | 76 | 105 | 1.0 | 3.0 | 0.00 | 0.22 | 0.22 | 93 | 1015.4 |
| 20260831012003 | 76 | 106 | 0.0 | 0.0 | 0.00 | 0.22 | 0.22 | 93 | 1015.3 |
| 20260831005001 | 76 | 107 | 0.0 | 0.0 | 0.00 | 0.22 | 0.22 | 93 | 1015.1 |
| 20260831004003 | 76 | 107 | 0.0 | 0.0 | 0.00 | 0.22 | 0.22 | 93 | 1015.0 |
| 20260831003001 | 76 | 107 | 0.0 | 0.0 | 0.00 | 0.22 | 0.22 | 93 | 1015.0 |
| 20260831001000 | 76 | 107 | 0.0 | 0.0 | 0.00 | 0.22 | 0.22 | 92 | 1014.8 |
| 20260831000005 | 76 | 107 | 0.0 | 0.0 | 0.00 | 0.22 | 0.22 | 92 | 1015.0 |
| 20260830234003 | 77 | 107 | 0.0 | 0.0 | 0.00 | 0.23 | 0.22 | 92 | 1014.6 |
| 20260830233000 | 77 | 107 | 0.0 | 0.0 | 0.00 | 0.23 | 0.22 | 92 | 1014.5 |
| 20260830232003 | 76 | 107 | 0.0 | 0.0 | 0.00 | 0.23 | 0.22 | 92 | 1014.4 |
| 20260830230005 | 76 | 107 | 1.0 | 3.0 | 0.00 | 0.23 | 0.22 | 91 | 1014.2 |
| 20260830225001 | 76 | 115 | 1.0 | 3.0 | 0.00 | 0.26 | 0.22 | 91 | 1014.1 |
| 20260830224003 | 76 | 116 | 0.0 | 0.0 | 0.01 | 0.26 | 0.22 | 92 | 1014.0 |
| 20260830223001 | 76 | 116 | 0.0 | 2.0 | 0.01 | 0.26 | 0.22 | 92 | 1014.1 |
| 20260830222002 | 76 | 116 | 1.0 | 4.0 | 0.01 | 0.26 | 0.22 | 91 | 1014.1 |
| 20260830221000 | 76 | 118 | 2.0 | 6.0 | 0.02 | 0.26 | 0.22 | 90 | 1014.2 |
| 20260830215001 | 76 | 148 | 0.0 | 0.0 | 0.03 | 0.30 | 0.22 | 90 | 1014.3 |
| 20260830214002 | 76 | 148 | 0.0 | 0.0 | 0.02 | 0.29 | 0.21 | 90 | 1014.3 |
| 20260830213000 | 76 | 148 | 0.0 | 0.0 | 0.03 | 0.29 | 0.21 | 90 | 1014.3 |
| 20260830212002 | 76 | 148 | 0.0 | 3.0 | 0.04 | 0.29 | 0.21 | 90 | 1014.3 |
| 20260830210005 | 76 | 140 | 1.0 | 4.0 | 0.08 | 0.28 | 0.20 | 90 | 1014.4 |
| 20260830203000 | 76 | 194 | 1.0 | 5.0 | 0.07 | 0.27 | 0.18 | 90 | 1014.9 |
| 20260830202000 | 76 | 196 | 1.0 | 8.0 | 0.06 | 0.26 | 0.17 | 90 | 1014.9 |
| 20260830201000 | 76 | 209 | 2.0 | 7.0 | 0.02 | 0.22 | 0.13 | 89 | 1015.0 |
| 20260830200003 | 77 | 127 | 3.0 | 8.0 | 0.00 | 0.20 | 0.11 | 89 | 1015.1 |
| 20260830195003 | 76 | 152 | 3.0 | 9.0 | 0.01 | 0.20 | 0.11 | 88 | 1015.4 |
| 20260830194000 | 77 | 80 | 4.0 | 9.0 | 0.08 | 0.20 | 0.11 | 87 | 1015.5 |
| 20260830193002 | 77 | 100 | 5.0 | 9.0 | 0.10 | 0.20 | 0.11 | 86 | 1015.3 |
| 20260830192000 | 78 | 101 | 7.0 | 12.0 | 0.10 | 0.20 | 0.11 | 85 | 1015.3 |
| 20260830191002 | 79 | 92 | 6.0 | 12.0 | 0.10 | 0.20 | 0.11 | 86 | 1015.1 |
| 20260830190003 | 79 | 107 | 2.0 | 7.0 | 0.10 | 0.20 | 0.11 | 85 | 1015.0 |
| 20260830185000 | 81 | 155 | 2.0 | 8.0 | 0.09 | 0.19 | 0.10 | 82 | 1015.1 |
| 20260830184000 | 83 | 219 | 6.0 | 14.0 | 0.02 | 0.12 | 0.03 | 79 | 1015.2 |
| 20260830183000 | 85 | 147 | 6.0 | 17.0 | 0.00 | 0.10 | 0.01 | 74 | 1014.7 |
| 20260830182002 | 88 | 150 | 2.0 | 8.0 | 0.00 | 0.10 | 0.01 | 72 | 1014.6 |
| 20260830181000 | 88 | 214 | 1.0 | 4.0 | 0.00 | 0.10 | 0.01 | 70 | 1014.5 |
| 20260830174002 | 89 | 116 | 2.0 | 10.0 | 0.00 | 0.10 | 0.01 | 70 | 1015.1 |
| 20260830173000 | 88 | 136 | 2.0 | 7.0 | 0.00 | 0.10 | 0.01 | 72 | 1015.1 |
| 20260830172002 | 89 | 146 | 2.0 | 7.0 | 0.00 | 0.10 | 0.01 | 71 | 1015.2 |
| 20260830171000 | 89 | 126 | 2.0 | 7.0 | 0.00 | 0.10 | 0.01 | 71 | 1015.2 |
| 20260830165000 | 89 | 113 | 4.0 | 8.0 | 0.00 | 0.10 | 0.01 | 71 | 1015.3 |
| 20260830163000 | 88 | 192 | 2.0 | 6.0 | 0.00 | 0.10 | 0.01 | 75 | 1015.8 |
| 20260830162000 | 86 | 127 | 2.0 | 5.0 | 0.00 | 0.10 | 0.01 | 77 | 1015.9 |
| 20260830161000 | 86 | 146 | 3.0 | 7.0 | 0.00 | 0.10 | 0.01 | 79 | 1015.9 |
| 20260830160003 | 86 | 149 | 2.0 | 8.0 | 0.00 | 0.10 | 0.01 | 79 | 1015.9 |
| 20260830155002 | 85 | 112 | 3.0 | 7.0 | 0.00 | 0.10 | 0.01 | 79 | 1016.1 |
| 20260830154000 | 86 | 139 | 2.0 | 8.0 | 0.00 | 0.10 | 0.01 | 81 | 1016.2 |
| 20260830153002 | 86 | 108 | 3.0 | 9.0 | 0.00 | 0.10 | 0.01 | 80 | 1016.2 |
| 20260830152000 | 85 | 118 | 4.0 | 8.0 | 0.00 | 0.10 | 0.01 | 81 | 1016.3 |
| 20260830151002 | 85 | 134 | 3.0 | 8.0 | 0.00 | 0.10 | 0.01 | 83 | 1016.1 |
| 20260830150003 | 85 | 109 | 3.0 | 8.0 | 0.00 | 0.10 | 0.01 | 84 | 1016.2 |
| 20260830145000 | 85 | 98 | 1.0 | 8.0 | 0.00 | 0.10 | 0.01 | 84 | 1016.2 |
| 20260830144007 | 84 | 166 | 3.0 | 8.0 | 0.00 | 0.10 | 0.01 | 84 | 1016.3 |
| 20260830143000 | 84 | 88 | 3.0 | 8.0 | 0.00 | 0.10 | 0.01 | 86 | 1016.4 |
| 20260830142002 | 83 | 80 | 1.0 | 4.0 | 0.00 | 0.10 | 0.01 | 87 | 1016.3 |
| 20260830140005 | 81 | 89 | 2.0 | 6.0 | 0.00 | 0.10 | 0.01 | 89 | 1016.4 |
| 20260830135000 | 80 | 94 | 2.0 | 6.0 | 0.00 | 0.10 | 0.01 | 90 | 1016.3 |
| 20260830134004 | 80 | 111 | 3.0 | 6.0 | 0.00 | 0.10 | 0.01 | 91 | 1016.4 |
| 20260830132002 | 78 | 89 | 2.0 | 5.0 | 0.00 | 0.10 | 0.01 | 94 | 1016.1 |
| 20260830131000 | 77 | 120 | 1.0 | 4.0 | 0.00 | 0.10 | 0.01 | 95 | 1016.0 |
| 20260830130009 | 76 | 38 | 1.0 | 6.0 | 0.00 | 0.10 | 0.01 | 96 | 1016.0 |
| 20260830124000 | 74 | 78 | 1.0 | 4.0 | 0.00 | 0.10 | 0.01 | 96 | 1016.0 |
| 20260830123000 | 74 | 80 | 1.0 | 4.0 | 0.00 | 0.10 | 0.01 | 96 | 1016.0 |
| 20260830122000 | 73 | 96 | 0.0 | 0.0 | 0.00 | 0.10 | 0.01 | 96 | 1015.9 |
| 20260830121000 | 72 | 96 | 0.0 | 0.0 | 0.00 | 0.10 | 0.01 | 96 | 1015.8 |
| 20260830120002 | 72 | 96 | 0.0 | 0.0 | 0.00 | 0.10 | 0.01 | 96 | 1015.7 |
| 20260830115001 | 72 | 96 | 0.0 | 0.0 | 0.00 | 0.10 | 0.01 | 96 | 1015.7 |
| 20260830113959 | 72 | 96 | 0.0 | 0.0 | 0.00 | 0.10 | 0.01 | 96 | 1015.5 |
| 20260830113002 | 72 | 96 | 0.0 | 0.0 | 0.00 | 0.10 | 0.01 | 96 | 1015.3 |